When you browse on this site, cookies collect data to enhance your experience and personalize the content and advertising you see.
Visit our Privacy Policy to learn more. By continuing to use the site, you agree to this use of cookies and data.
  • în România
  • Lista ţărilor
  • Pe 7 zile
  • Temperatura apei
  • Hartă satelitară
  • Meteo pe hartă
  • Widget-uri
  • user-avatar
    Intrare

    Meteo pe oră la Cincinnati

    Astăzi, 20 Mai, Luni

    Timp Temperatura Precipitaţii Vânt Presiune Umiditate
    00:00 +19°C° 0 mm 1 m/s 741 mmHg 89%
    01:00 +18°C° 0 mm 2 m/s 742 mmHg 89%
    02:00 +17°C° 0 mm 2 m/s 742 mmHg 90%
    03:00 +17°C° 0 mm 3 m/s 743 mmHg 90%
    04:00 +17°C° 0 mm 3 m/s 743 mmHg 88%
    05:00 +16°C° 0 mm 3 m/s 743 mmHg 87%
    06:00 +16°C° 0 mm 3 m/s 744 mmHg 85%
    07:00 +17°C° 0 mm 4 m/s 744 mmHg 76%
    08:00 +18°C° 0 mm 4 m/s 744 mmHg 68%
    09:00 +19°C° 0 mm 5 m/s 745 mmHg 59%
    10:00 +20°C° 0 mm 5 m/s 745 mmHg 57%
    11:00 +21°C° 0 mm 5 m/s 745 mmHg 56%
    12:00 +21°C° 0 mm 5 m/s 746 mmHg 54%
    13:00 +21°C° 0 mm 5 m/s 746 mmHg 56%
    14:00 +21°C° 0 mm 4 m/s 746 mmHg 58%
    15:00 +20°C° 0 mm 4 m/s 746 mmHg 60%
    16:00 +19°C° 0 mm 4 m/s 746 mmHg 63%
    17:00 +18°C° 0 mm 3 m/s 746 mmHg 66%
    18:00 +17°C° 0 mm 3 m/s 746 mmHg 69%
    19:00 +16°C° 0 mm 3 m/s 747 mmHg 70%
    20:00 +13°C° 0 mm 3 m/s 747 mmHg 72%
    21:00 +12°C° 0 mm 3 m/s 748 mmHg 73%
    22:00 +11°C° 0 mm 3 m/s 748 mmHg 74%
    23:00 +11°C° 0 mm 3 m/s 748 mmHg 75%

    Mâine, 21 Mai, Marţi

    Timp Temperatura Precipitaţii Vânt Presiune Umiditate
    00:00 +10°C° 0 mm 3 m/s 748 mmHg 76%
    01:00 +9°C° 0 mm 2 m/s 748 mmHg 77%
    02:00 +9°C° 0 mm 2 m/s 748 mmHg 78%
    03:00 +9°C° 0 mm 2 m/s 748 mmHg 79%
    04:00 +9°C° 0 mm 2 m/s 748 mmHg 77%
    05:00 +10°C° 0 mm 3 m/s 748 mmHg 75%
    06:00 +10°C° 0 mm 3 m/s 749 mmHg 74%
    07:00 +11°C° 0 mm 3 m/s 749 mmHg 71%
    08:00 +12°C° 0 mm 4 m/s 749 mmHg 69%
    09:00 +13°C° 0 mm 4 m/s 749 mmHg 66%
    10:00 +14°C° 0 mm 4 m/s 748 mmHg 64%
    11:00 +16°C° 0 mm 3 m/s 748 mmHg 61%
    12:00 +18°C° 0 mm 3 m/s 748 mmHg 59%
    13:00 +18°C° 0 mm 3 m/s 747 mmHg 58%
    14:00 +19°C° 0 mm 4 m/s 747 mmHg 57%
    15:00 +19°C° 0 mm 4 m/s 747 mmHg 57%
    16:00 +19°C° 0 mm 4 m/s 747 mmHg 60%
    17:00 +18°C° 0 mm 4 m/s 747 mmHg 62%
    18:00 +17°C° 0 mm 4 m/s 746 mmHg 65%
    19:00 +17°C° 0 mm 4 m/s 746 mmHg 65%
    20:00 +15°C° 0 mm 4 m/s 746 mmHg 65%
    21:00 +15°C° 0 mm 5 m/s 746 mmHg 64%
    22:00 +14°C° 0 mm 5 m/s 746 mmHg 65%
    23:00 +14°C° 0 mm 4 m/s 745 mmHg 65%

    Poimâine, 22 Mai, Miercuri

    Timp Temperatura Precipitaţii Vânt Presiune Umiditate
    00:00 +13°C° 0 mm 4 m/s 745 mmHg 65%
    01:00 +13°C° 0 mm 4 m/s 745 mmHg 65%
    02:00 +13°C° 0 mm 4 m/s 744 mmHg 65%
    03:00 +13°C° 0 mm 4 m/s 744 mmHg 65%
    04:00 +13°C° 0 mm 4 m/s 745 mmHg 65%
    05:00 +13°C° 0 mm 4 m/s 745 mmHg 66%
    06:00 +14°C° 0 mm 4 m/s 745 mmHg 66%
    07:00 +17°C° 0 mm 4 m/s 745 mmHg 64%
    08:00 +20°C° 0 mm 4 m/s 745 mmHg 63%
    09:00 +24°C° 0 mm 3 m/s 745 mmHg 61%
    10:00 +26°C° 0 mm 4 m/s 746 mmHg 57%
    11:00 +29°C° 0 mm 5 m/s 746 mmHg 52%
    12:00 +32°C° 0 mm 6 m/s 746 mmHg 48%
    13:00 +30°C° 0.1 mm 5 m/s 745 mmHg 53%
    14:00 +30°C° 0.1 mm 5 m/s 745 mmHg 59%
    15:00 +29°C° 0.1 mm 4 m/s 745 mmHg 64%
    16:00 +28°C° 0.3 mm 3 m/s 745 mmHg 70%
    17:00 +27°C° 0.3 mm 3 m/s 745 mmHg 76%
    18:00 +27°C° 0.3 mm 3 m/s 746 mmHg 81%
    19:00 +26°C° 0 mm 2 m/s 746 mmHg 85%
    20:00 +25°C° 0 mm 2 m/s 747 mmHg 89%
    21:00 +24°C° 0 mm 2 m/s 747 mmHg 93%
    22:00 +23°C° 0 mm 2 m/s 747 mmHg 94%
    23:00 +23°C° 0 mm 2 m/s 747 mmHg 95%

    23 Mai, Joi

    Timp Temperatura Precipitaţii Vânt Presiune Umiditate
    00:00 +21°C° 0 mm 2 m/s 747 mmHg 96%
    01:00 +21°C° 0 mm 2 m/s 747 mmHg 96%
    02:00 +21°C° 0 mm 2 m/s 747 mmHg 96%
    03:00 +21°C° 0 mm 2 m/s 747 mmHg 96%
    04:00 +21°C° 0.3 mm 2 m/s 748 mmHg 94%
    05:00 +21°C° 0.3 mm 2 m/s 748 mmHg 92%
    06:00 +21°C° 0.3 mm 2 m/s 748 mmHg 90%
    07:00 +24°C° 0.1 mm 3 m/s 748 mmHg 84%
    08:00 +26°C° 0.1 mm 4 m/s 748 mmHg 78%
    09:00 +27°C° 0.1 mm 4 m/s 748 mmHg 73%
    10:00 +28°C° 0.4 mm 5 m/s 748 mmHg 71%
    11:00 +29°C° 0.4 mm 5 m/s 748 mmHg 69%
    12:00 +30°C° 0.4 mm 6 m/s 747 mmHg 66%
    13:00 +30°C° 0.6 mm 6 m/s 747 mmHg 66%
    14:00 +30°C° 0.6 mm 6 m/s 747 mmHg 65%
    15:00 +32°C° 0.6 mm 6 m/s 747 mmHg 64%
    16:00 +30°C° 0.1 mm 5 m/s 747 mmHg 69%
    17:00 +29°C° 0.1 mm 4 m/s 747 mmHg 73%
    18:00 +28°C° 0.1 mm 3 m/s 747 mmHg 78%
    19:00 +27°C° 0.2 mm 3 m/s 747 mmHg 82%
    20:00 +26°C° 0.2 mm 3 m/s 747 mmHg 86%
    21:00 +25°C° 0.2 mm 2 m/s 747 mmHg 90%
    22:00 +25°C° 0 mm 2 m/s 747 mmHg 91%
    23:00 +24°C° 0 mm 2 m/s 747 mmHg 92%

    24 Mai, Vineri

    Timp Temperatura Precipitaţii Vânt Presiune Umiditate
    00:00 +24°C° 0 mm 2 m/s 747 mmHg 93%
    01:00 +24°C° 0.2 mm 2 m/s 747 mmHg 93%
    02:00 +23°C° 0.2 mm 2 m/s 747 mmHg 94%
    03:00 +23°C° 0.2 mm 2 m/s 747 mmHg 94%
    04:00 +23°C° 0.3 mm 1 m/s 747 mmHg 93%
    05:00 +24°C° 0.3 mm 1 m/s 748 mmHg 93%
    06:00 +24°C° 0.3 mm 1 m/s 748 mmHg 92%
    07:00 +26°C° 0 mm 2 m/s 748 mmHg 84%
    08:00 +27°C° 0 mm 2 m/s 748 mmHg 77%
    09:00 +28°C° 0 mm 2 m/s 748 mmHg 70%
    10:00 +30°C° 0 mm 3 m/s 748 mmHg 64%
    11:00 +31°C° 0 mm 3 m/s 748 mmHg 58%
    12:00 +33°C° 0 mm 3 m/s 747 mmHg 53%
    13:00 +33°C° 0.1 mm 3 m/s 747 mmHg 54%
    14:00 +33°C° 0.1 mm 4 m/s 746 mmHg 55%
    15:00 +33°C° 0.1 mm 4 m/s 746 mmHg 56%
    16:00 +32°C° 0 mm 4 m/s 746 mmHg 61%
    17:00 +30°C° 0 mm 3 m/s 745 mmHg 66%
    18:00 +28°C° 0 mm 3 m/s 745 mmHg 71%
    19:00 +27°C° 0 mm 3 m/s 745 mmHg 75%
    20:00 +26°C° 0 mm 3 m/s 745 mmHg 79%
    21:00 +25°C° 0 mm 2 m/s 746 mmHg 83%
    22:00 +25°C° 0 mm 2 m/s 745 mmHg 85%
    23:00 +25°C° 0 mm 2 m/s 745 mmHg 86%

    25 Mai, Sâmbătă

    Timp Temperatura Precipitaţii Vânt Presiune Umiditate
    00:00 +24°C° 0 mm 3 m/s 745 mmHg 87%
    01:00 +24°C° 0.1 mm 3 m/s 745 mmHg 87%
    02:00 +24°C° 0.1 mm 3 m/s 745 mmHg 87%
    03:00 +22°C° 0.1 mm 3 m/s 745 mmHg 87%
    04:00 +24°C° 0 mm 3 m/s 745 mmHg 86%
    05:00 +24°C° 0 mm 3 m/s 745 mmHg 85%
    06:00 +24°C° 0 mm 3 m/s 745 mmHg 84%
    07:00 +26°C° 0 mm 4 m/s 745 mmHg 78%
    08:00 +28°C° 0 mm 4 m/s 745 mmHg 71%
    09:00 +29°C° 0 mm 5 m/s 746 mmHg 64%
    10:00 +32°C° 0 mm 5 m/s 745 mmHg 60%
    11:00 +33°C° 0 mm 5 m/s 745 mmHg 56%
    12:00 +34°C° 0 mm 5 m/s 745 mmHg 51%
    13:00 +34°C° 0 mm 5 m/s 745 mmHg 52%
    14:00 +34°C° 0 mm 5 m/s 744 mmHg 52%
    15:00 +34°C° 0 mm 5 m/s 744 mmHg 52%
    16:00 +32°C° 1.1 mm 4 m/s 744 mmHg 60%
    17:00 +29°C° 1.1 mm 4 m/s 744 mmHg 68%
    18:00 +27°C° 1.1 mm 3 m/s 744 mmHg 76%
    19:00 +26°C° 0.3 mm 2 m/s 745 mmHg 78%
    20:00 +26°C° 0.3 mm 2 m/s 745 mmHg 81%
    21:00 +25°C° 0.3 mm 2 m/s 745 mmHg 83%
    22:00 +25°C° 0.1 mm 2 m/s 745 mmHg 85%
    23:00 +24°C° 0.1 mm 2 m/s 745 mmHg 86%
    Arată mai mult